Year,Month,Day,Hour,Minute,Value (Times are PST for temperature in C)
2016,07,10,00,00,14.40
2016,07,10,00,01,14.40
2016,07,10,00,02,14.40
2016,07,10,00,03,14.40
2016,07,10,00,04,14.40
2016,07,10,00,05,14.40
2016,07,10,00,06,14.40
2016,07,10,00,07,14.40
2016,07,10,00,08,14.40
2016,07,10,00,09,14.40
2016,07,10,00,10,14.40
2016,07,10,00,11,14.40
2016,07,10,00,12,14.40
2016,07,10,00,13,14.40
2016,07,10,00,14,14.40
2016,07,10,00,15,14.40
2016,07,10,00,16,14.40
2016,07,10,00,17,14.30
2016,07,10,00,18,15.00
2016,07,10,00,19,15.00
2016,07,10,00,20,14.60
2016,07,10,00,21,15.10
2016,07,10,00,22,14.80
2016,07,10,00,23,14.60
2016,07,10,00,24,14.60
2016,07,10,00,25,14.70
2016,07,10,00,26,14.60
2016,07,10,00,27,14.30
2016,07,10,00,28,14.30
2016,07,10,00,29,14.30
2016,07,10,00,30,14.30
2016,07,10,00,31,14.30
2016,07,10,00,32,14.30
2016,07,10,00,33,14.30
2016,07,10,00,34,14.30
2016,07,10,00,35,14.30
2016,07,10,00,36,14.30
2016,07,10,00,37,14.30
2016,07,10,00,38,14.30
2016,07,10,00,39,14.30
2016,07,10,00,40,14.30
2016,07,10,00,41,14.30
2016,07,10,00,42,14.30
2016,07,10,00,43,14.30
2016,07,10,00,44,14.20
2016,07,10,00,45,14.20
2016,07,10,00,46,14.20
2016,07,10,00,47,14.20
2016,07,10,00,48,14.20
2016,07,10,00,49,14.10
2016,07,10,00,50,14.10
2016,07,10,00,51,14.10
2016,07,10,00,52,14.10
2016,07,10,00,53,14.10
2016,07,10,00,54,14.10
2016,07,10,00,55,14.10
2016,07,10,00,56,14.10
2016,07,10,00,57,14.00
2016,07,10,00,58,14.00
2016,07,10,00,59,14.00
2016,07,10,01,00,14.00
2016,07,10,01,01,13.90
2016,07,10,01,02,13.90
2016,07,10,01,03,13.90
2016,07,10,01,04,13.90
2016,07,10,01,05,13.90
2016,07,10,01,06,13.90
2016,07,10,01,07,13.90
2016,07,10,01,08,13.90
2016,07,10,01,09,13.90
2016,07,10,01,10,13.90
2016,07,10,01,11,13.90
2016,07,10,01,12,13.80
2016,07,10,01,13,13.80
2016,07,10,01,14,13.90
2016,07,10,01,15,13.80
2016,07,10,01,16,13.80
2016,07,10,01,17,13.80
2016,07,10,01,18,13.90
2016,07,10,01,19,13.80
2016,07,10,01,20,13.80
2016,07,10,01,21,13.80
2016,07,10,01,22,13.80
2016,07,10,01,23,13.80
2016,07,10,01,24,13.80
2016,07,10,01,25,13.80
2016,07,10,01,26,13.80
2016,07,10,01,27,13.80
2016,07,10,01,28,13.80
2016,07,10,01,29,13.80
2016,07,10,01,30,13.80
2016,07,10,01,31,13.80
2016,07,10,01,32,13.80
2016,07,10,01,33,13.80
2016,07,10,01,34,13.80
2016,07,10,01,35,13.80
2016,07,10,01,36,13.80
2016,07,10,01,37,13.80
2016,07,10,01,38,13.80
2016,07,10,01,39,13.80
2016,07,10,01,40,13.80
2016,07,10,01,41,13.90
2016,07,10,01,42,13.90
2016,07,10,01,43,13.90
2016,07,10,01,44,13.90
2016,07,10,01,45,13.90
2016,07,10,01,46,13.90
2016,07,10,01,47,13.90
2016,07,10,01,48,13.90
2016,07,10,01,49,13.90
2016,07,10,01,50,13.90
2016,07,10,01,51,13.90
2016,07,10,01,52,13.90
2016,07,10,01,53,13.90
2016,07,10,01,54,13.90
2016,07,10,01,55,13.90
2016,07,10,01,56,13.90
2016,07,10,01,57,13.90
2016,07,10,01,58,14.00
2016,07,10,01,59,14.00
2016,07,10,02,00,13.90
2016,07,10,02,01,13.90
2016,07,10,02,02,13.90
2016,07,10,02,03,13.90
2016,07,10,02,04,13.90
2016,07,10,02,05,13.90
2016,07,10,02,06,13.90
2016,07,10,02,07,13.90
2016,07,10,02,08,13.90
2016,07,10,02,09,13.90
2016,07,10,02,10,13.90
2016,07,10,02,11,13.90
2016,07,10,02,12,13.90
2016,07,10,02,13,14.00
2016,07,10,02,14,14.00
2016,07,10,02,15,14.00
2016,07,10,02,16,14.00
2016,07,10,02,17,14.10
2016,07,10,02,18,14.10
2016,07,10,02,19,14.10
2016,07,10,02,20,14.10
2016,07,10,02,21,14.10
2016,07,10,02,22,14.10
2016,07,10,02,23,14.10
2016,07,10,02,24,14.10
2016,07,10,02,25,14.10
2016,07,10,02,26,14.10
2016,07,10,02,27,14.10
2016,07,10,02,28,14.10
2016,07,10,02,29,14.10
2016,07,10,02,30,14.10
2016,07,10,02,31,14.20
2016,07,10,02,32,14.10
2016,07,10,02,33,14.10
2016,07,10,02,34,14.20
2016,07,10,02,35,14.20
2016,07,10,02,36,14.20
2016,07,10,02,37,14.20
2016,07,10,02,38,14.20
2016,07,10,02,39,14.20
2016,07,10,02,40,14.20
2016,07,10,02,41,14.20
2016,07,10,02,42,14.20
2016,07,10,02,43,14.20
2016,07,10,02,44,14.30
2016,07,10,02,45,14.30
2016,07,10,02,46,14.20
2016,07,10,02,47,14.20
2016,07,10,02,48,14.20
2016,07,10,02,49,14.20
2016,07,10,02,50,14.20
2016,07,10,02,51,14.30
2016,07,10,02,52,14.20
2016,07,10,02,53,14.20
2016,07,10,02,54,14.20
2016,07,10,02,55,14.20
2016,07,10,02,56,14.20
2016,07,10,02,57,14.20
2016,07,10,02,58,14.20
2016,07,10,02,59,14.20
2016,07,10,03,00,14.10
2016,07,10,03,01,14.10
2016,07,10,03,02,14.10
2016,07,10,03,03,14.10
2016,07,10,03,04,14.10
2016,07,10,03,05,14.10
2016,07,10,03,06,14.10
2016,07,10,03,07,14.10
2016,07,10,03,08,14.10
2016,07,10,03,09,14.10
2016,07,10,03,10,14.10
2016,07,10,03,11,14.10
2016,07,10,03,12,14.10
2016,07,10,03,13,14.10
2016,07,10,03,14,14.10
2016,07,10,03,15,14.10
2016,07,10,03,16,14.10
2016,07,10,03,17,14.10
2016,07,10,03,18,14.10
2016,07,10,03,19,14.10
2016,07,10,03,20,14.10
2016,07,10,03,21,14.10
2016,07,10,03,22,14.10
2016,07,10,03,23,14.10
2016,07,10,03,24,14.10
2016,07,10,03,25,14.10
2016,07,10,03,26,14.20
2016,07,10,03,27,14.20
2016,07,10,03,28,14.20
2016,07,10,03,29,14.20
2016,07,10,03,30,14.20
2016,07,10,03,31,14.20
2016,07,10,03,32,14.20
2016,07,10,03,33,14.20
2016,07,10,03,34,14.30
2016,07,10,03,35,14.40
2016,07,10,03,36,14.40
2016,07,10,03,37,14.40
2016,07,10,03,38,14.40
2016,07,10,03,39,14.40
2016,07,10,03,40,14.40
2016,07,10,03,41,14.40
2016,07,10,03,42,14.40
2016,07,10,03,43,14.40
2016,07,10,03,44,14.40
2016,07,10,03,45,14.30
2016,07,10,03,46,14.40
2016,07,10,03,47,14.40
2016,07,10,03,48,14.40
2016,07,10,03,49,14.40
2016,07,10,03,50,14.50
2016,07,10,03,51,14.40
2016,07,10,03,52,14.40
2016,07,10,03,53,14.40
2016,07,10,03,54,14.50
2016,07,10,03,55,14.60
2016,07,10,03,56,14.60
2016,07,10,03,57,14.50
2016,07,10,03,58,14.60
2016,07,10,03,59,14.60
2016,07,10,04,00,14.60
2016,07,10,04,01,14.60
2016,07,10,04,02,14.70
2016,07,10,04,03,14.80
2016,07,10,04,04,14.90
2016,07,10,04,05,15.00
2016,07,10,04,06,14.90
2016,07,10,04,07,15.00
2016,07,10,04,08,15.00
2016,07,10,04,09,15.00
2016,07,10,04,10,15.00
2016,07,10,04,11,15.00
2016,07,10,04,12,15.00
2016,07,10,04,13,15.00
2016,07,10,04,14,15.00
2016,07,10,04,15,15.00
2016,07,10,04,16,15.00
2016,07,10,04,17,15.00
2016,07,10,04,18,14.90
2016,07,10,04,19,14.90
2016,07,10,04,20,14.90
2016,07,10,04,21,14.90
2016,07,10,04,22,14.90
2016,07,10,04,23,14.90
2016,07,10,04,24,15.00
2016,07,10,04,25,15.00
2016,07,10,04,26,15.00
2016,07,10,04,27,14.90
2016,07,10,04,28,15.00
2016,07,10,04,29,15.00
2016,07,10,04,30,15.00
2016,07,10,04,31,15.00
2016,07,10,04,32,15.00
2016,07,10,04,33,14.90
2016,07,10,04,34,14.90
2016,07,10,04,35,14.90
2016,07,10,04,36,14.90
2016,07,10,04,37,14.90
2016,07,10,04,38,14.90
2016,07,10,04,39,14.90
2016,07,10,04,40,14.90
2016,07,10,04,41,14.90
2016,07,10,04,42,14.80
2016,07,10,04,43,14.80
2016,07,10,04,44,14.80
2016,07,10,04,45,14.70
2016,07,10,04,46,14.70
2016,07,10,04,47,14.70
2016,07,10,04,48,14.70
2016,07,10,04,49,14.70
2016,07,10,04,50,14.60
2016,07,10,04,51,14.60
2016,07,10,04,52,14.60
2016,07,10,04,53,14.60
2016,07,10,04,54,14.60
2016,07,10,04,55,14.60
2016,07,10,04,56,14.60
2016,07,10,04,57,14.60
2016,07,10,04,58,14.60
2016,07,10,04,59,14.60
2016,07,10,05,00,14.60
2016,07,10,05,01,14.60
2016,07,10,05,02,14.60
2016,07,10,05,03,14.50
2016,07,10,05,04,14.50
2016,07,10,05,05,14.50
2016,07,10,05,06,14.50
2016,07,10,05,07,14.40
2016,07,10,05,08,14.40
2016,07,10,05,09,14.40
2016,07,10,05,10,14.40
2016,07,10,05,11,14.40
2016,07,10,05,12,14.40
2016,07,10,05,13,14.40
2016,07,10,05,14,14.40
2016,07,10,05,15,14.40
2016,07,10,05,16,14.40
2016,07,10,05,17,14.40
2016,07,10,05,18,14.40
2016,07,10,05,19,14.40
2016,07,10,05,20,14.40
2016,07,10,05,21,14.40
2016,07,10,05,22,14.40
2016,07,10,05,23,14.40
2016,07,10,05,24,14.40
2016,07,10,05,25,14.30
2016,07,10,05,26,14.40
2016,07,10,05,27,14.40
2016,07,10,05,28,14.40
2016,07,10,05,29,14.40
2016,07,10,05,30,14.40
2016,07,10,05,31,14.40
2016,07,10,05,32,14.40
2016,07,10,05,33,14.50
2016,07,10,05,34,14.50
2016,07,10,05,35,14.50
2016,07,10,05,36,14.50
2016,07,10,05,37,14.50
2016,07,10,05,38,14.50
2016,07,10,05,39,14.50
2016,07,10,05,40,14.40
2016,07,10,05,41,14.40
2016,07,10,05,42,14.40
2016,07,10,05,43,14.40
2016,07,10,05,44,14.30
2016,07,10,05,45,14.30
2016,07,10,05,46,14.20
2016,07,10,05,47,14.20
2016,07,10,05,48,14.20
2016,07,10,05,49,14.30
2016,07,10,05,50,14.40
2016,07,10,05,51,14.50
2016,07,10,05,52,14.90
2016,07,10,05,53,15.00
2016,07,10,05,54,15.00
2016,07,10,05,55,15.10
2016,07,10,05,56,15.50
